Alexandria Esle, LA

8:43 PM CDT on March 22, 2017 (GMT -0500)
Alexandria Esler Regional

Weather History for KESF - October, 2012

Change the Weather History Date:

Friday, October 26, 2012

  Actual Average Record
Temperature  
Mean Temperature 58 °F -  
Max Temperature 69 °F 75 °F 88 °F (2010)
Min Temperature 48 °F 48 °F 30 °F (2005)
Degree Days  
Heating Degree Days 6    
Growing Degree Days 8 (Base 50)    
Moisture  
Dew Point 57 °F    
Average Humidity 89    
Maximum Humidity 100    
Minimum Humidity 75    
Precipitation  
Precipitation 0.01 in - - ()
Sea Level Pressure  
Sea Level Pressure 30.03 in    
Wind  
Wind Speed 2 mph (North)    
Max Wind Speed 12 mph    
Max Gust Speed 24 mph    
Visibility 6 miles    
Events Fog , Rain    
Averages and records for this station are not official NWS values.
T = Trace of Precipitation, MM = Missing Value Source: NWS Daily Summary

Daily Weather History Graph

Daily Weather History Graph

Search for Another Location

Airport or City:

Trip Planner

Search our weather history database for the weather conditions in past years. The results will help you decide how hot, cold, wet, or windy it might be!

Date:

Astronomy

Oct. 26, 2012 Rise Set
Actual Time 7:20 AM CDT 6:25 PM CDT
Civil Twilight 6:55 AM CDT 6:49 PM CDT
Nautical Twilight 6:27 AM CDT 7:18 PM CDT
Astronomical Twilight 5:58 AM CDT 7:46 PM CDT
Moon 4:33 PM CDT (10/26) 4:26 AM CDT (10/26)
Length of Visible Light 11h 54m
Length of Day
11h 04m
Waxing Gibbous, 91% of the Moon is Illuminated
Oct 26
Waxing Gibbous
Oct 29
Full
Nov 6
Last Quarter
Nov 13
New
Nov 20
First Quarter

Hourly Weather History & Observations

Time (CDT) Temp. Dew Point Humidity Pressure Visibility Wind Dir Wind Speed Gust Speed Precip Events Conditions
12:53 AM 64.9 °F 63.0 °F 93% 29.94 in 4.0 mi Calm Calm - N/A   Clear
1:01 AM 64.4 °F 62.6 °F 94% 29.94 in 1.5 mi Calm Calm - N/A   Clear
1:03 AM 64.4 °F 62.6 °F 94% 29.94 in 1.0 mi Calm Calm - N/A   Mist
1:13 AM 64.4 °F 62.6 °F 94% 29.95 in 2.5 mi Calm Calm - N/A   Clear
1:20 AM 64.4 °F 64.4 °F 100% 29.95 in 6.0 mi Calm Calm - N/A   Clear
1:49 AM 64.4 °F 62.6 °F 94% 29.96 in 1.8 mi Calm Calm - N/A   Clear
1:53 AM 64.9 °F 63.0 °F 93% 29.95 in 1.2 mi Calm Calm - N/A   Clear
2:03 AM 64.4 °F 62.6 °F 94% 29.95 in 0.5 mi Calm Calm - N/A Fog Fog
2:21 AM 64.4 °F 62.6 °F 94% 29.95 in 1.2 mi Calm Calm - N/A   Partly Cloudy
2:33 AM 64.4 °F 62.6 °F 94% 29.95 in 3.0 mi Calm Calm - N/A   Clear
2:45 AM 62.6 °F 62.6 °F 100% 29.95 in 1.5 mi Calm Calm - N/A   Partly Cloudy
2:48 AM 62.6 °F 60.8 °F 94% 29.94 in 0.8 mi Calm Calm - N/A   Mist
2:53 AM 63.0 °F 61.0 °F 93% 29.94 in 0.5 mi Calm Calm - N/A Fog Fog
3:11 AM 62.6 °F 62.6 °F 100% 29.95 in 1.2 mi Calm Calm - N/A   Scattered Clouds
3:16 AM 62.6 °F 60.8 °F 94% 29.95 in 3.0 mi Calm Calm - N/A   Partly Cloudy
3:39 AM 62.6 °F 60.8 °F 94% 29.94 in 1.8 mi Calm Calm - N/A   Partly Cloudy
3:43 AM 62.6 °F 60.8 °F 94% 29.94 in 1.0 mi Calm Calm - N/A   Mist
3:51 AM 62.6 °F 60.8 °F 94% 29.94 in 0.8 mi Calm Calm - N/A   Mist
3:53 AM 62.1 °F 61.0 °F 96% 29.94 in 1.0 mi Calm Calm - N/A   Mist
4:02 AM 62.6 °F 60.8 °F 94% 29.94 in 1.2 mi Calm Calm - N/A   Partly Cloudy
4:16 AM 62.6 °F 60.8 °F 94% 29.95 in 2.5 mi Calm Calm - N/A   Partly Cloudy
4:23 AM 62.6 °F 60.8 °F 94% 29.95 in 4.0 mi Calm Calm - N/A   Partly Cloudy
4:53 AM 62.1 °F 60.1 °F 93% 29.94 in 3.0 mi Calm Calm - N/A   Clear
5:51 AM 62.6 °F 60.8 °F 94% 29.97 in 7.0 mi Calm Calm - N/A   Mostly Cloudy
5:53 AM 63.0 °F 61.0 °F 93% 29.96 in 8.0 mi Calm Calm - N/A   Mostly Cloudy
6:20 AM 62.6 °F 60.8 °F 94% 29.97 in 7.0 mi Calm Calm - N/A   Scattered Clouds
6:53 AM 63.0 °F 61.0 °F 93% 29.98 in 6.0 mi Calm Calm - N/A   Partly Cloudy
7:49 AM 64.4 °F 62.6 °F 94% 30.00 in 8.0 mi West 3.5 mph - 0.01 in   Overcast
7:53 AM 64.9 °F 63.0 °F 93% 30.00 in 8.0 mi Calm Calm - 0.01 in   Overcast
8:21 AM 69.8 °F 66.2 °F 88% 30.01 in 5.0 mi North 4.6 mph - N/A   Overcast
8:46 AM 69.8 °F 64.4 °F 83% 30.01 in 8.0 mi Variable 6.9 mph - N/A   Overcast
8:53 AM 69.1 °F 64.9 °F 87% 30.01 in 9.0 mi NNE 8.1 mph 16.1 mph N/A   Overcast
9:53 AM 68.0 °F 64.0 °F 87% 30.02 in 9.0 mi North 8.1 mph - N/A   Overcast
10:53 AM 64.4 °F 60.8 °F 88% 30.05 in 10.0 mi North 9.2 mph - N/A   Overcast
11:22 AM 64.4 °F 57.2 °F 77% 30.06 in 10.0 mi North 9.2 mph - N/A   Overcast
11:53 AM 62.1 °F 55.9 °F 80% 30.08 in 10.0 mi NNE 9.2 mph - N/A   Overcast
12:53 PM 62.1 °F 55.0 °F 78% 30.06 in 10.0 mi Variable 6.9 mph - N/A   Overcast
1:53 PM 61.0 °F 53.1 °F 75% 30.06 in 10.0 mi NE 8.1 mph - N/A   Overcast
2:53 PM 59.0 °F 52.0 °F 78% 30.06 in 10.0 mi North 8.1 mph - 0.00 in   Overcast
3:53 PM 57.9 °F 51.1 °F 78% 30.07 in 10.0 mi Variable 4.6 mph - N/A   Overcast
4:53 PM 55.0 °F 51.1 °F 86% 30.07 in 8.0 mi North 11.5 mph 19.6 mph N/A   Overcast
5:02 PM 55.4 °F 51.8 °F 88% 30.08 in 9.0 mi North 9.2 mph 17.3 mph N/A   Overcast
5:41 PM 53.6 °F 48.2 °F 82% 30.10 in 10.0 mi North 8.1 mph - 0.00 in   Overcast
5:53 PM 54.0 °F 48.9 °F 83% 30.09 in 10.0 mi North 10.4 mph 17.3 mph 0.00 in   Overcast
6:39 PM 53.6 °F 48.2 °F 82% 30.10 in 9.0 mi Variable 6.9 mph - N/A   Overcast
6:53 PM 52.0 °F 48.9 °F 89% 30.12 in 5.0 mi North 6.9 mph 16.1 mph 0.00 in Rain Light Rain
7:36 PM 51.8 °F 48.2 °F 88% 30.13 in 9.0 mi North 8.1 mph - 0.00 in   Overcast
7:49 PM 51.8 °F 48.2 °F 88% 30.13 in 9.0 mi Variable 6.9 mph - 0.00 in   Overcast
7:53 PM 51.1 °F 48.0 °F 89% 30.13 in 9.0 mi Variable 5.8 mph - 0.00 in   Overcast
8:24 PM 51.8 °F 46.4 °F 82% 30.14 in 10.0 mi North 9.2 mph 16.1 mph N/A   Overcast
8:53 PM 51.1 °F 46.9 °F 86% 30.16 in 10.0 mi NNW 6.9 mph - N/A   Overcast
9:20 PM 50.0 °F 46.4 °F 87% 30.17 in 10.0 mi North 11.5 mph 20.7 mph N/A   Overcast
9:30 PM 50.0 °F 44.6 °F 82% 30.17 in 10.0 mi North 8.1 mph 24.2 mph N/A   Overcast
9:53 PM 50.0 °F 45.0 °F 83% 30.17 in 10.0 mi North 8.1 mph 16.1 mph N/A   Overcast
10:53 PM 48.9 °F 44.1 °F 83% 30.17 in 10.0 mi North 9.2 mph 16.1 mph N/A   Overcast
11:22 PM 48.2 °F 42.8 °F 82% 30.17 in 10.0 mi Variable 6.9 mph - N/A   Overcast
11:42 PM 48.2 °F 42.8 °F 82% 30.17 in 10.0 mi North 8.1 mph - N/A   Overcast
11:53 PM 48.9 °F 43.0 °F 80% 30.16 in 10.0 mi North 9.2 mph - N/A   Overcast